Time,TemperatureF,DewpointF,PressureIn,WindDirection,WindDirectionDegrees,WindSpeedMPH,WindSpeedGustMPH,Humidity,HourlyPrecipIn,Conditions,Clouds,dailyrainin,SoftwareType,DateUTC
2013-04-03 00:09:00,53.2,-99.9,30.12,WSW,248,3.4,4.3,9,0.00,,CLR,0.00,VWS V14.01,2013-04-03 07:09:00,
2013-04-03 00:19:00,52.9,-99.9,30.12,SW,225,3.4,3.6,9,0.00,,CLR,0.00,VWS V14.01,2013-04-03 07:19:00,
2013-04-03 00:29:00,52.5,-99.9,30.12,SW,225,2.7,3.6,9,0.00,,CLR,0.00,VWS V14.01,2013-04-03 07:29:00,
2013-04-03 00:39:00,50.5,-99.9,30.12,SSW,202,1.6,2.7,10,0.00,,CLR,0.00,VWS V14.01,2013-04-03 07:39:00,
2013-04-03 00:49:00,48.9,-99.9,30.12,SSW,202,2.5,2.9,10,0.00,,CLR,0.00,VWS V14.01,2013-04-03 07:49:00,
2013-04-03 00:59:00,48.2,-99.9,30.09,WSW,248,0.0,2.7,10,0.00,,CLR,0.00,VWS V14.01,2013-04-03 07:59:00,
2013-04-03 01:09:00,46.6,-99.9,30.12,SW,225,1.1,2.5,10,0.00,,CLR,0.00,VWS V14.01,2013-04-03 08:09:00,
2013-04-03 01:19:00,45.9,-99.9,30.12,WSW,248,1.6,2.5,11,0.00,,CLR,0.00,VWS V14.01,2013-04-03 08:19:00,
2013-04-03 01:29:00,45.9,-99.9,30.12,SW,225,3.1,3.1,11,0.00,,CLR,0.00,VWS V14.01,2013-04-03 08:29:00,
2013-04-03 01:39:00,47.7,-99.9,30.12,WSW,248,3.4,4.9,10,0.00,,CLR,0.00,VWS V14.01,2013-04-03 08:39:00,
2013-04-03 01:49:00,50.2,-99.9,30.12,WSW,248,3.8,5.6,10,0.00,,CLR,0.00,VWS V14.01,2013-04-03 08:49:00,
2013-04-03 02:00:00,51.8,-99.9,30.12,WSW,248,3.4,6.0,9,0.00,,CLR,0.00,VWS V14.01,2013-04-03 09:00:00,
2013-04-03 02:09:00,51.6,-99.9,30.12,WSW,248,4.3,4.7,10,0.00,,CLR,0.00,VWS V14.01,2013-04-03 09:09:00,
2013-04-03 02:19:00,51.6,-99.9,30.12,WSW,248,4.3,4.9,10,0.00,,CLR,0.00,VWS V14.01,2013-04-03 09:19:00,
2013-04-03 02:29:00,51.8,-99.9,30.12,WSW,248,4.9,6.0,10,0.00,,CLR,0.00,VWS V14.01,2013-04-03 09:29:00,
2013-04-03 02:39:00,52.2,-99.9,30.09,WNW,292,7.4,7.4,10,0.00,,CLR,0.00,VWS V14.01,2013-04-03 09:39:00,
2013-04-03 02:49:00,51.6,-99.9,30.09,SW,225,3.8,7.4,13,0.00,,CLR,0.00,VWS V14.01,2013-04-03 09:49:00,
2013-04-03 02:59:00,52.2,-99.9,30.09,WNW,292,5.8,7.4,15,0.00,,CLR,0.00,VWS V14.01,2013-04-03 09:59:00,
2013-04-03 03:19:00,52.3,-99.9,30.09,WSW,248,3.4,7.2,15,0.00,,CLR,0.00,VWS V14.01,2013-04-03 10:19:00,
2013-04-03 03:30:00,52.0,-99.9,30.09,SW,225,3.1,6.3,15,0.00,,CLR,0.00,VWS V14.01,2013-04-03 10:30:00,
2013-04-03 03:39:00,51.1,-99.9,30.09,NNE,22,1.1,5.8,11,0.00,,CLR,0.00,VWS V14.01,2013-04-03 10:39:00,
2013-04-03 03:49:00,50.2,-99.9,30.09,North,0,0.0,2.7,10,0.00,,CLR,0.00,VWS V14.01,2013-04-03 10:49:00,
2013-04-03 03:59:00,49.8,-99.9,30.09,SSW,202,1.1,4.0,13,0.00,,CLR,0.00,VWS V14.01,2013-04-03 10:59:00,
2013-04-03 04:09:00,50.4,-99.9,30.09,WNW,292,5.6,5.6,16,0.00,,CLR,0.00,VWS V14.01,2013-04-03 11:09:00,
2013-04-03 04:19:00,52.2,-99.9,30.09,WNW,292,2.9,5.6,15,0.00,,CLR,0.00,VWS V14.01,2013-04-03 11:19:00,
2013-04-03 04:29:00,51.8,-99.9,30.09,WNW,292,4.0,4.3,15,0.00,,CLR,0.00,VWS V14.01,2013-04-03 11:29:00,
2013-04-03 04:39:00,52.7,-99.9,30.09,WSW,248,2.9,6.0,15,0.00,,CLR,0.00,VWS V14.01,2013-04-03 11:39:00,
2013-04-03 04:49:00,53.2,-99.9,30.09,WSW,248,3.1,6.0,13,0.00,,CLR,0.00,VWS V14.01,2013-04-03 11:49:00,
2013-04-03 04:59:00,52.5,-99.9,30.12,WSW,248,3.4,4.3,13,0.00,,CLR,0.00,VWS V14.01,2013-04-03 11:59:00,
2013-04-03 05:09:00,51.6,-99.9,30.12,WSW,248,2.0,4.0,13,0.00,,CLR,0.00,VWS V14.01,2013-04-03 12:09:00,
2013-04-03 05:19:00,50.2,-99.9,30.12,South,180,0.0,2.7,16,0.00,,CLR,0.00,VWS V14.01,2013-04-03 12:19:00,
2013-04-03 05:29:00,49.1,-99.9,30.12,West,270,0.0,2.7,16,0.00,,CLR,0.00,VWS V14.01,2013-04-03 12:29:00,
2013-04-03 05:39:00,48.0,-99.9,30.12,WSW,248,0.0,2.7,19,0.00,,CLR,0.00,VWS V14.01,2013-04-03 12:39:00,
2013-04-03 05:49:00,46.4,-99.9,30.12,ESE,112,2.5,2.5,21,0.00,,CLR,0.00,VWS V14.01,2013-04-03 12:49:00,
2013-04-03 05:59:00,45.9,-99.9,30.15,ESE,112,0.0,2.5,24,0.00,,CLR,0.00,VWS V14.01,2013-04-03 12:59:00,
2013-04-03 06:09:00,46.6,-99.9,30.15,SSE,158,2.7,3.6,29,0.00,,CLR,0.00,VWS V14.01,2013-04-03 13:09:00,
2013-04-03 06:19:00,47.3,-99.9,30.15,South,180,2.0,4.3,30,0.00,,CLR,0.00,VWS V14.01,2013-04-03 13:19:00,
2013-04-03 06:30:00,49.1,-99.9,30.15,SW,225,2.5,2.5,29,0.00,,CLR,0.00,VWS V14.01,2013-04-03 13:30:00,
2013-04-03 06:39:00,50.2,-99.9,30.15,South,180,0.9,2.5,29,0.00,,CLR,0.00,VWS V14.01,2013-04-03 13:39:00,
2013-04-03 06:49:00,51.4,-99.9,30.15,South,180,1.3,2.2,29,0.00,,CLR,0.00,VWS V14.01,2013-04-03 13:49:00,
2013-04-03 07:00:00,53.4,-99.9,30.15,SSW,202,0.0,2.7,29,0.00,,CLR,0.00,VWS V14.01,2013-04-03 14:00:00,
2013-04-03 07:09:00,56.1,-99.9,30.15,SW,225,0.0,2.7,27,0.00,,CLR,0.00,VWS V14.01,2013-04-03 14:09:00,
2013-04-03 07:19:00,58.6,-99.9,30.15,WNW,292,1.6,3.1,26,0.00,,CLR,0.00,VWS V14.01,2013-04-03 14:19:00,
2013-04-03 07:29:00,60.1,-99.9,30.15,WNW,292,2.5,5.8,19,0.00,,CLR,0.00,VWS V14.01,2013-04-03 14:29:00,
2013-04-03 07:39:00,61.3,-99.9,30.15,WNW,292,5.4,5.4,11,0.00,,CLR,0.00,VWS V14.01,2013-04-03 14:39:00,
2013-04-03 07:49:00,61.9,-99.9,30.15,WNW,292,2.7,6.7,11,0.00,,CLR,0.00,VWS V14.01,2013-04-03 14:49:00,
2013-04-03 07:59:00,63.1,-99.9,30.15,WNW,292,2.7,6.0,8,0.00,,CLR,0.00,VWS V14.01,2013-04-03 14:59:00,
2013-04-03 08:09:00,65.7,-99.9,30.15,NE,45,2.0,4.3,6,0.00,,CLR,0.00,VWS V14.01,2013-04-03 15:09:00,
2013-04-03 08:19:00,65.5,-99.9,30.15,ENE,68,4.5,5.6,6,0.00,,CLR,0.00,VWS V14.01,2013-04-03 15:19:00,
2013-04-03 08:29:00,65.7,-99.9,30.15,ENE,68,1.1,5.8,6,0.00,,CLR,0.00,VWS V14.01,2013-04-03 15:29:00,
2013-04-03 08:39:00,66.2,-99.9,30.18,ESE,112,1.3,6.0,6,0.00,,CLR,0.00,VWS V14.01,2013-04-03 15:39:00,
2013-04-03 08:49:00,67.8,-99.9,30.18,NNW,338,3.1,4.9,6,0.00,,CLR,0.00,VWS V14.01,2013-04-03 15:49:00,
2013-04-03 09:09:00,68.5,-99.9,30.18,NNW,338,2.7,5.4,6,0.00,,CLR,0.00,VWS V14.01,2013-04-03 16:09:00,
2013-04-03 09:29:00,68.9,-99.9,30.15,North,0,2.9,6.5,6,0.00,,CLR,0.00,VWS V14.01,2013-04-03 16:29:00,
2013-04-03 09:39:00,70.2,-99.9,30.18,East,90,3.8,4.9,5,0.00,,CLR,0.00,VWS V14.01,2013-04-03 16:39:00,
2013-04-03 09:59:00,71.1,-99.9,30.18,WSW,248,3.6,6.7,5,0.00,,CLR,0.00,VWS V14.01,2013-04-03 16:59:00,
2013-04-03 10:29:00,70.7,-99.9,30.18,NE,45,3.4,9.6,5,0.00,,CLR,0.00,VWS V14.01,2013-04-03 17:29:00,
2013-04-03 10:59:00,71.1,-99.9,30.15,WSW,248,6.0,7.8,5,0.00,,CLR,0.00,VWS V14.01,2013-04-03 17:59:00,
2013-04-03 11:09:00,72.0,-99.9,30.18,NNE,22,2.9,8.7,5,0.00,,CLR,0.00,VWS V14.01,2013-04-03 18:09:00,
2013-04-03 11:19:00,71.8,-99.9,30.18,WSW,248,3.6,4.9,5,0.00,,CLR,0.00,VWS V14.01,2013-04-03 18:19:00,
2013-04-03 11:39:00,73.4,-99.9,30.15,ENE,68,0.0,7.6,4,0.00,,CLR,0.00,VWS V14.01,2013-04-03 18:39:00,
2013-04-03 11:49:00,73.2,-99.9,30.15,NNW,338,7.2,8.1,5,0.00,,CLR,0.00,VWS V14.01,2013-04-03 18:49:00,
2013-04-03 11:59:00,73.4,-99.9,30.15,NNW,338,0.9,7.4,4,0.00,,CLR,0.00,VWS V14.01,2013-04-03 18:59:00,
2013-04-03 12:09:00,73.8,-99.9,30.15,NNW,338,6.5,8.7,4,0.00,,CLR,0.00,VWS V14.01,2013-04-03 19:09:00,
2013-04-03 12:29:00,73.8,-99.9,30.12,NNW,338,13.2,13.2,4,0.00,,CLR,0.00,VWS V14.01,2013-04-03 19:29:00,
2013-04-03 12:39:00,74.8,-99.9,30.15,NNW,338,5.6,13.2,4,0.00,,CLR,0.00,VWS V14.01,2013-04-03 19:39:00,
2013-04-03 12:49:00,74.1,-99.9,30.15,NNW,338,8.5,15.4,4,0.00,,CLR,0.00,VWS V14.01,2013-04-03 19:49:00,
2013-04-03 12:59:00,75.6,-99.9,30.15,North,0,3.1,12.3,4,0.00,,CLR,0.00,VWS V14.01,2013-04-03 19:59:00,
2013-04-03 13:09:00,75.4,-99.9,30.18,NNW,338,6.3,8.7,4,0.00,,CLR,0.00,VWS V14.01,2013-04-03 20:09:00,
2013-04-03 13:19:00,74.8,-99.9,30.18,NW,315,8.5,14.3,4,0.00,,CLR,0.00,VWS V14.01,2013-04-03 20:19:00,
2013-04-03 13:29:00,75.0,-99.9,30.15,NW,315,10.5,16.8,4,0.00,,CLR,0.00,VWS V14.01,2013-04-03 20:29:00,
2013-04-03 13:40:00,74.8,-99.9,30.15,West,270,6.7,14.8,4,0.00,,CLR,0.00,VWS V14.01,2013-04-03 20:40:00,
2013-04-03 13:49:00,75.0,-99.9,30.15,WNW,292,9.2,12.8,4,0.00,,CLR,0.00,VWS V14.01,2013-04-03 20:49:00,
2013-04-03 14:09:00,75.4,-99.9,30.12,WNW,292,12.8,15.7,4,0.00,,CLR,0.00,VWS V14.01,2013-04-03 21:09:00,
2013-04-03 14:19:00,75.7,-99.9,30.12,NW,315,11.0,15.4,4,0.00,,CLR,0.00,VWS V14.01,2013-04-03 21:19:00,
2013-04-03 14:29:00,75.4,-99.9,30.12,WNW,292,8.7,14.5,4,0.00,,CLR,0.00,VWS V14.01,2013-04-03 21:29:00,
2013-04-03 14:39:00,75.6,-99.9,30.09,NNW,338,10.1,15.2,4,0.00,,CLR,0.00,VWS V14.01,2013-04-03 21:39:00,
2013-04-03 14:49:00,75.6,-99.9,30.09,WNW,292,7.8,16.1,4,0.00,,CLR,0.00,VWS V14.01,2013-04-03 21:49:00,
2013-04-03 14:59:00,75.6,-99.9,30.12,WNW,292,10.7,15.4,4,0.00,,CLR,0.00,VWS V14.01,2013-04-03 21:59:00,
2013-04-03 15:09:00,75.4,-99.9,30.12,WNW,292,10.7,15.4,4,0.00,,FEW250,0.00,VWS V14.01,2013-04-03 22:09:00,
2013-04-03 15:19:00,75.4,-99.9,30.12,NNW,338,6.5,12.8,4,0.00,,FEW250,0.00,VWS V14.01,2013-04-03 22:19:00,
2013-04-03 15:29:00,75.7,-99.9,30.12,NW,315,13.0,13.6,4,0.00,,FEW250,0.00,VWS V14.01,2013-04-03 22:29:00,
2013-04-03 15:39:00,74.8,-99.9,30.12,NNW,338,5.8,15.9,4,0.00,,FEW250,0.00,VWS V14.01,2013-04-03 22:39:00,
2013-04-03 15:49:00,75.7,-99.9,30.12,WNW,292,8.1,13.9,4,0.00,,FEW250,0.00,VWS V14.01,2013-04-03 22:49:00,
2013-04-03 16:09:00,75.2,-99.9,30.12,North,0,7.4,13.2,4,0.00,,FEW250,0.00,VWS V14.01,2013-04-03 23:09:00,
2013-04-03 16:20:00,75.2,-99.9,30.12,WNW,292,7.6,13.6,4,0.00,,FEW250,0.00,VWS V14.01,2013-04-03 23:20:00,
2013-04-03 16:29:00,74.7,-99.9,30.12,NW,315,7.4,13.6,4,0.00,,FEW250,0.00,VWS V14.01,2013-04-03 23:29:00,
2013-04-03 16:39:00,74.7,-99.9,30.12,NNE,22,8.5,13.4,4,0.00,,FEW250,0.00,VWS V14.01,2013-04-03 23:39:00,
2013-04-03 16:49:00,74.7,-99.9,30.12,WNW,292,10.1,16.6,4,0.00,,FEW250,0.00,VWS V14.01,2013-04-03 23:49:00,
2013-04-03 16:59:00,74.1,-99.9,30.12,WNW,292,6.5,13.6,4,0.00,,FEW250,0.00,VWS V14.01,2013-04-03 23:59:00,
2013-04-03 17:09:00,73.8,-99.9,30.12,NW,315,7.6,16.8,4,0.00,,FEW250,0.00,VWS V14.01,2013-04-04 00:09:00,
2013-04-03 17:19:00,73.2,-99.9,30.12,NW,315,10.3,15.2,5,0.00,,FEW250,0.00,VWS V14.01,2013-04-04 00:19:00,
2013-04-03 17:29:00,73.0,-99.9,30.12,WNW,292,6.0,15.4,5,0.00,,FEW250,0.00,VWS V14.01,2013-04-04 00:29:00,
2013-04-03 17:39:00,72.9,-99.9,30.15,WNW,292,12.8,15.4,5,0.00,,FEW250,0.00,VWS V14.01,2013-04-04 00:39:00,
2013-04-03 17:49:00,72.0,-99.9,30.15,WNW,292,8.5,14.8,5,0.00,,FEW250,0.00,VWS V14.01,2013-04-04 00:49:00,
2013-04-03 17:59:00,70.9,-99.9,30.15,WNW,292,7.6,16.1,5,0.00,,FEW250,0.00,VWS V14.01,2013-04-04 00:59:00,
2013-04-03 18:09:00,70.0,-99.9,30.15,NW,315,6.3,12.8,5,0.00,,FEW250,0.00,VWS V14.01,2013-04-04 01:09:00,
2013-04-03 18:19:00,69.6,-99.9,30.15,NW,315,8.5,12.8,6,0.00,,FEW250,0.00,VWS V14.01,2013-04-04 01:19:00,
2013-04-03 18:30:00,68.7,-99.9,30.15,WNW,292,7.8,11.4,6,0.00,,FEW250,0.00,VWS V14.01,2013-04-04 01:30:00,
2013-04-03 18:39:00,67.8,-99.9,30.15,WSW,248,5.8,10.7,6,0.00,,FEW250,0.00,VWS V14.01,2013-04-04 01:39:00,
2013-04-03 18:49:00,66.4,-99.9,30.15,WSW,248,3.4,7.8,6,0.00,,FEW250,0.00,VWS V14.01,2013-04-04 01:49:00,
2013-04-03 18:59:00,64.2,-99.9,30.15,West,270,5.6,6.0,7,0.00,,FEW250,0.00,VWS V14.01,2013-04-04 01:59:00,
2013-04-03 19:09:00,63.3,-99.9,30.15,West,270,3.8,6.5,7,0.00,,FEW250,0.00,VWS V14.01,2013-04-04 02:09:00,
2013-04-03 19:29:00,63.1,-99.9,30.15,WSW,248,4.7,6.7,7,0.00,,FEW250,0.00,VWS V14.01,2013-04-04 02:29:00,
2013-04-03 19:39:00,62.4,-99.9,30.15,West,270,3.8,6.3,7,0.00,,FEW250,0.00,VWS V14.01,2013-04-04 02:39:00,
2013-04-03 19:59:00,61.9,-99.9,30.15,West,270,6.3,7.2,7,0.00,,FEW250,0.00,VWS V14.01,2013-04-04 02:59:00,
2013-04-03 20:09:00,61.3,-99.9,30.15,SW,225,3.6,7.6,7,0.00,,FEW250,0.00,VWS V14.01,2013-04-04 03:09:00,
2013-04-03 20:20:00,60.8,-99.9,30.15,SW,225,4.0,7.6,7,0.00,,FEW250,0.00,VWS V14.01,2013-04-04 03:20:00,
2013-04-03 20:29:00,60.1,-99.9,30.15,WSW,248,5.4,6.3,8,0.00,,FEW250,0.00,VWS V14.01,2013-04-04 03:29:00,
2013-04-03 20:39:00,60.6,-99.9,30.15,WSW,248,3.8,6.5,8,0.00,,FEW250,0.00,VWS V14.01,2013-04-04 03:39:00,
2013-04-03 20:49:00,60.4,-99.9,30.15,WSW,248,4.0,7.6,8,0.00,,FEW250,0.00,VWS V14.01,2013-04-04 03:49:00,
2013-04-03 20:59:00,60.4,-99.9,30.18,WSW,248,2.7,8.1,8,0.00,,FEW250,0.00,VWS V14.01,2013-04-04 03:59:00,
2013-04-03 21:19:00,58.8,-99.9,30.18,NW,315,4.9,6.0,8,0.00,,FEW250,0.00,VWS V14.01,2013-04-04 04:19:00,
2013-04-03 21:29:00,58.5,-99.9,30.18,WSW,248,5.4,6.3,8,0.00,,FEW250,0.00,VWS V14.01,2013-04-04 04:29:00,
2013-04-03 21:39:00,58.6,-99.9,30.18,WSW,248,4.0,6.3,8,0.00,,FEW250,0.00,VWS V14.01,2013-04-04 04:39:00,
2013-04-03 21:49:00,58.3,-99.9,30.18,WSW,248,3.6,5.8,8,0.00,,FEW250,0.00,VWS V14.01,2013-04-04 04:49:00,
2013-04-03 21:59:00,58.1,-99.9,30.18,WSW,248,3.1,5.6,8,0.00,,FEW250,0.00,VWS V14.01,2013-04-04 04:59:00,
2013-04-03 22:09:00,58.5,-99.9,30.18,WSW,248,4.0,7.8,8,0.00,,FEW250,0.00,VWS V14.01,2013-04-04 05:09:00,
2013-04-03 22:19:00,58.8,-99.9,30.18,SW,225,3.4,6.3,8,0.00,,FEW250,0.00,VWS V14.01,2013-04-04 05:19:00,
2013-04-03 22:39:00,58.8,-99.9,30.18,WSW,248,4.5,7.4,8,0.00,,FEW250,0.00,VWS V14.01,2013-04-04 05:39:00,
2013-04-03 22:49:00,57.9,-99.9,30.18,SW,225,4.9,5.4,8,0.00,,FEW250,0.00,VWS V14.01,2013-04-04 05:49:00,
2013-04-03 22:59:00,57.7,-99.9,30.18,WSW,248,2.9,5.4,8,0.00,,FEW250,0.00,VWS V14.01,2013-04-04 05:59:00,
2013-04-03 23:09:00,57.6,-99.9,30.21,WSW,248,2.9,5.4,8,0.00,,FEW250,0.00,VWS V14.01,2013-04-04 06:09:00,
2013-04-03 23:19:00,57.6,-99.9,30.21,SW,225,3.8,5.4,8,0.00,,FEW250,0.00,VWS V14.01,2013-04-04 06:19:00,
2013-04-03 23:29:00,57.2,-99.9,30.18,NE,45,3.1,4.7,8,0.00,,FEW250,0.00,VWS V14.01,2013-04-04 06:29:00,
2013-04-03 23:39:00,54.3,-99.9,30.18,ENE,68,0.9,3.6,9,0.00,,FEW250,0.00,VWS V14.01,2013-04-04 06:39:00,
2013-04-03 23:49:00,53.2,-99.9,30.21,East,90,0.0,2.0,9,0.00,,FEW250,0.00,VWS V14.01,2013-04-04 06:49:00,